Dallas/Ft Worth, TX

7:28 PM CDT on October 18, 2017 (GMT -0500)
Dallas-Fort Worth International

Weather History for KDFW - March, 2012

Change the Weather History Date:

Wednesday, March 21, 2012

  Actual Average Record
Temperature  
Mean Temperature 57 °F 59 °F  
Max Temperature 64 °F 70 °F 100 °F (1916)
Min Temperature 50 °F 48 °F 27 °F (1965)
Degree Days  
Heating Degree Days 8 7  
Month to date heating degree days 99 200  
Since 1 July heating degree days 1760 2132  
Cooling Degree Days 0 1  
Month to date cooling degree days 48 19  
Year to date cooling degree days 56 26  
Growing Degree Days 7 (Base 50)    
Moisture  
Dew Point 44 °F    
Average Humidity 67    
Maximum Humidity 96    
Minimum Humidity 37    
Precipitation  
Precipitation T in 0.12 in 1.84 in (1926)
Month to date precipitation 5.51 2.39  
Year to date precipitation 13.57 7.18  
Snow  
Snow 0.00 in 0.00 in 0.40 in (1970)
Month to date snowfall 0.0 0.2  
Since 1 July snowfall 0.3 1.6  
Snow Depth 0.00 in    
Sea Level Pressure  
Sea Level Pressure 29.78 in    
Wind  
Wind Speed 10 mph (SSW)    
Max Wind Speed 25 mph    
Max Gust Speed 30 mph    
Visibility 10 miles    
Events Rain    
T = Trace of Precipitation, MM = Missing Value Source: NWS Daily Summary

Daily Weather History Graph

Daily Weather History Graph

Search for Another Location

Airport or City:

Trip Planner

Search our weather history database for the weather conditions in past years. The results will help you decide how hot, cold, wet, or windy it might be!

Date:

Astronomy

Mar. 21, 2012 Rise Set
Actual Time 7:29 AM CDT 7:40 PM CDT
Civil Twilight 7:05 AM CDT 8:05 PM CDT
Nautical Twilight 6:36 AM CDT 8:34 PM CDT
Astronomical Twilight 6:07 AM CDT 9:03 PM CDT
Moon 6:40 AM CDT (3/21) 7:07 PM CDT (3/21)
Length of Visible Light 13h 00m
Length of Day
12h 10m
Waning Crescent, 1% of the Moon is Illuminated
Mar 21
Waning Crescent
Mar 22
New
Mar 30
First Quarter
Apr 6
Full
Apr 13
Last Quarter

Hourly Weather History & Observations

Time (CDT) Temp. Dew Point Humidity Pressure Visibility Wind Dir Wind Speed Gust Speed Precip Events Conditions
12:53 AM 54.0 °F 50.0 °F 86% 29.78 in 10.0 mi Calm Calm - N/A   Mostly Cloudy
1:53 AM 52.0 °F 50.0 °F 93% 29.78 in 10.0 mi Calm Calm - N/A   Mostly Cloudy
2:53 AM 52.0 °F 50.0 °F 93% 29.79 in 10.0 mi SE 4.6 mph - N/A   Mostly Cloudy
3:53 AM 54.0 °F 48.0 °F 80% 29.78 in 10.0 mi South 3.5 mph - N/A   Mostly Cloudy
4:53 AM 53.1 °F 48.0 °F 83% 29.77 in 10.0 mi Calm Calm - N/A   Mostly Cloudy
5:53 AM 52.0 °F 46.9 °F 83% 29.78 in 10.0 mi SW 6.9 mph - N/A   Mostly Cloudy
6:53 AM 51.1 °F 48.0 °F 89% 29.79 in 10.0 mi SE 6.9 mph - N/A   Mostly Cloudy
7:53 AM 50.0 °F 43.0 °F 77% 29.80 in 10.0 mi SE 8.1 mph - N/A   Mostly Cloudy
8:53 AM 53.1 °F 45.0 °F 74% 29.79 in 10.0 mi SSE 10.4 mph - N/A   Mostly Cloudy
9:53 AM 57.0 °F 43.0 °F 59% 29.80 in 10.0 mi South 13.8 mph 21.9 mph N/A   Scattered Clouds
10:53 AM 59.0 °F 46.0 °F 62% 29.79 in 10.0 mi South 10.4 mph - N/A   Scattered Clouds
11:53 AM 61.0 °F 46.0 °F 58% 29.78 in 10.0 mi South 12.7 mph 18.4 mph N/A   Scattered Clouds
12:53 PM 63.0 °F 44.1 °F 50% 29.77 in 10.0 mi South 12.7 mph - N/A   Scattered Clouds
1:53 PM 62.1 °F 42.1 °F 48% 29.75 in 10.0 mi South 16.1 mph 19.6 mph N/A   Mostly Cloudy
2:53 PM 62.1 °F 41.0 °F 46% 29.74 in 10.0 mi SW 13.8 mph 21.9 mph N/A   Mostly Cloudy
3:53 PM 63.0 °F 41.0 °F 45% 29.73 in 10.0 mi SW 13.8 mph - N/A   Mostly Cloudy
4:53 PM 63.0 °F 39.9 °F 43% 29.73 in 10.0 mi SW 15.0 mph - N/A   Mostly Cloudy
5:53 PM 64.0 °F 37.9 °F 38% 29.73 in 10.0 mi SSW 15.0 mph 27.6 mph N/A   Mostly Cloudy
6:53 PM 63.0 °F 37.0 °F 38% 29.75 in 10.0 mi SSW 11.5 mph - N/A   Mostly Cloudy
7:53 PM 61.0 °F 37.9 °F 42% 29.77 in 10.0 mi West 13.8 mph - N/A   Mostly Cloudy
8:53 PM 57.9 °F 42.1 °F 56% 29.82 in 10.0 mi West 23.0 mph 29.9 mph 0.00 in Rain Light Rain
9:53 PM 54.0 °F 46.0 °F 75% 29.79 in 10.0 mi South 6.9 mph - 0.00 in   Mostly Cloudy
10:53 PM 55.9 °F 45.0 °F 67% 29.80 in 10.0 mi WSW 6.9 mph - N/A   Overcast
11:53 PM 55.9 °F 46.0 °F 69% 29.81 in 10.0 mi SSW 8.1 mph - N/A   Overcast